VELOX-1 (40057 NORAD) Tracking and Keplerian Element Data

This shows tracking and keplerian element data for the satellite.

Feedback or suggestion? Click here.




ElementValue
Catalog40057
NameVELOX-1
Epoch Orbit36421
Epoch Day91.77011412
Epoch Year2021
RAAN243.3575
Inclination98.3154
Eccentricity0.0009683
Argument of Perigee307.0343
Mean Anonmoly52.9981
Mean Motion14.78111963
Decay Rate4.67E-06
L11 40057U 14034E 21091.77011412 .00000467 00000-0 72238-4 0 9997
L22 40057 98.3154 243.3575 0009683 307.0343 52.9981 14.78111963364214



Live tracking and technical data element details for VELOX-1 (NORAD 40057). VELOX-1 can be tracked NOW for your location showing map with azimuth and elevation plus other details from your city location.







IsCatalogInMostPopularTable: catalog: 40057, numindb: 418
Update: records affected: 1



GetName: 40057 VELOX-1

Hit Count: updated at: Thu, 23 Jan 2025 18:10:01 GMT